Tracking 28794 objects as of 19-Apr-2024
HD Live streaming from Space Station
objects crossing your sky now

DELTA 1 DEB

Track DELTA 1 DEB now!
10-day predictions


NORAD ID: 27577
Int'l Code: 1975-052LE
Perigee: 1,036.6 km
Apogee: 1,150.7 km
Inclination: 99.1 °
Period: 107.0 minutes
Semi major axis: 7464 km
RCS: 0.0165 m2 (small)
Launch date: June 12, 1975
Source: United States (US)
Launch site: AIR FORCE WESTERN TEST RANGE (AFWTR)

Note: This is SATELLITE DEBRIS
Your satellite tracking list
Your tracking list is empty




NASA's NSSDC Master Catalog

Two Line Element Set (TLE):
1 27577U 75052LE  24109.29457819  .00000841  00000-0  14452-2 0  9999
2 27577  99.1262  35.0437 0076389 219.0270 293.7982 13.46134696431219
Source of the keplerian elements: AFSPC